Lewiston, ID

11:21 AM PDT on March 25, 2017 (GMT -0700)
Lewiston-Nez Perce County

Weather History for KLWS - August, 2014

Change the Weather History Date:

Tuesday, August 12, 2014

  Actual Average Record
Temperature  
Mean Temperature 83 °F 75 °F  
Max Temperature 98 °F 90 °F 106 °F (2001)
Min Temperature 68 °F 60 °F 48 °F (1907)
Degree Days  
Heating Degree Days 0 0  
Month to date heating degree days 0 0  
Since 1 June heating degree days 41 77  
Since 1 July heating degree days 0 7  
Cooling Degree Days 18 10  
Month to date cooling degree days 205 132  
Year to date cooling degree days 806 562  
Since 1 June cooling degree days 778 530  
Growing Degree Days 35 (Base 50)    
Moisture  
Dew Point 55 °F    
Average Humidity 44    
Maximum Humidity 70    
Minimum Humidity 17    
Precipitation  
Precipitation T in 0.02 in 0.82 in (1922)
Month to date precipitation T 0.22  
Year to date precipitation 6.50 8.06  
Snow  
Snow 0.00 in 0.00 in 0.00 in (1998)
Month to date snowfall 0.0 0.0  
Since 1 June snowfall 0.0 0.0  
Since 1 July snowfall 0.0 0.0  
Snow Depth 0.00 in    
Sea Level Pressure  
Sea Level Pressure 29.82 in    
Wind  
Wind Speed 7 mph (East)    
Max Wind Speed 36 mph    
Max Gust Speed 49 mph    
Visibility 10 miles    
Events Rain    
T = Trace of Precipitation, MM = Missing Value Source: NWS Daily Summary

Daily Weather History Graph

Daily Weather History Graph

Search for Another Location

Airport or City:

Trip Planner

Search our weather history database for the weather conditions in past years. The results will help you decide how hot, cold, wet, or windy it might be!

Date:

Astronomy

Aug. 12, 2014 Rise Set
Actual Time 5:43 AM PDT 8:02 PM PDT
Civil Twilight 5:09 AM PDT 8:35 PM PDT
Nautical Twilight 4:28 AM PDT 9:16 PM PDT
Astronomical Twilight 3:41 AM PDT 10:03 PM PDT
Moon 8:59 PM PDT (8/12) 8:17 AM PDT (8/12)
Length of Visible Light 15h 25m
Length of Day
14h 19m
Waning Gibbous, 94% of the Moon is Illuminated
Aug 12
Waning Gibbous
Aug 17
Last Quarter
Aug 25
New
Sep 2
First Quarter
Sep 8
Full

Hourly Weather History & Observations

Time (PDT) Temp. Heat Index Dew Point Humidity Pressure Visibility Wind Dir Wind Speed Gust Speed Precip Events Conditions
12:56 AM 87.1 °F - 48.9 °F 27% 29.83 in 10.0 mi SSW 8.1 mph - N/A   Scattered Clouds
1:56 AM 84.0 °F - 51.1 °F 32% 29.84 in 10.0 mi SE 9.2 mph - 0.00 in   Partly Cloudy
2:56 AM 82.9 °F - 52.0 °F 34% 29.84 in 10.0 mi SW 5.8 mph - 0.00 in   Partly Cloudy
3:56 AM 81.0 °F - 52.0 °F 36% 29.82 in 10.0 mi Calm Calm - N/A   Clear
4:56 AM 79.0 °F - 52.0 °F 39% 29.83 in 10.0 mi Calm Calm - N/A   Clear
5:56 AM 79.0 °F - 53.1 °F 40% 29.84 in 10.0 mi Calm Calm - N/A   Clear
6:56 AM 79.0 °F - 50.0 °F 36% 29.85 in 10.0 mi ENE 8.1 mph - N/A   Clear
7:56 AM 81.0 °F - 52.0 °F 36% 29.86 in 9.0 mi East 6.9 mph - N/A   Clear
8:56 AM 80.6 °F 80.3 °F 53.6 °F 39% 29.90 in 9.0 mi East 8.1 mph - N/A   Clear
10:56 AM 89.1 °F 86.9 °F 54.0 °F 30% 29.83 in 10.0 mi ENE 11.5 mph - N/A   Clear
11:56 AM 93.0 °F 90.6 °F 53.1 °F 26% 29.80 in 10.0 mi ENE 8.1 mph - N/A   Clear
12:56 PM 96.8 °F - 51.8 °F 22% 29.82 in 7.0 mi NE 15.0 mph - N/A   Clear
1:56 PM 97.0 °F - 51.1 °F 21% 29.74 in 6.0 mi NE 11.5 mph - N/A   Haze
2:56 PM 97.0 °F - 48.9 °F 19% 29.72 in 10.0 mi ENE 9.2 mph - N/A   Partly Cloudy
3:56 PM 96.1 °F - 45.0 °F 17% 29.69 in 10.0 mi WSW 3.5 mph - N/A   Clear
4:56 PM 80.1 °F 81.5 °F 63.0 °F 56% 29.77 in 10.0 mi SW 15.0 mph - 0.00 in Rain Light Rain
5:03 PM 80.1 °F 81.5 °F 63.0 °F 56% 29.80 in 10.0 mi SW 9.2 mph - 0.00 in   Overcast
5:56 PM 82.9 °F 83.3 °F 61.0 °F 47% 29.79 in 10.0 mi NNW 9.2 mph - 0.00 in   Scattered Clouds
6:56 PM 80.1 °F 80.4 °F 57.0 °F 45% 29.79 in 10.0 mi WNW 12.7 mph - N/A   Partly Cloudy
7:56 PM 78.1 °F - 57.0 °F 48% 29.82 in 10.0 mi Calm Calm - N/A   Clear
8:56 PM 73.0 °F - 59.0 °F 61% 29.86 in 10.0 mi ESE 8.1 mph - N/A   Clear
9:56 PM 73.0 °F - 59.0 °F 61% 29.87 in 10.0 mi East 10.4 mph - N/A   Clear
10:56 PM 72.0 °F - 59.0 °F 64% 29.87 in 10.0 mi East 9.2 mph - N/A   Clear
11:56 PM 70.0 °F - 59.0 °F 68% 29.87 in 10.0 mi East 6.9 mph - N/A   Clear